Flag for Germany Weather past 2 weeks in Troisdorf, North Rhine-Westphalia, Germany

Now
52 °F

Passing clouds.


Feels Like: 49 °F
Forecast: 45 / 57 °F
Wind: 7 mph from Northwest

Location: Koeln / Bonn

Current Time: Sep 22, 2014 at 12:27:05 AM

Latest Report: Sep 21, 2014 at 11:50 PM


Visibility: N/A

Pressure: 30.12 "Hg

Humidity: 94%

Dew point: 50 °F

Location of TroisdorfLocation

Historic Weather in Troisdorf — Graph

°F

Troisdorf temperature yesterday

Maximum temperature yesterday: 63 °F (at 12:50 AM)
Minimum temperature yesterday: 52 °F (at 10:20 PM)
Average temperature yesterday: 60 °F

Past Weeks' High & Low Weather Summary

 TemperatureHumidityPressure
High77 °F (Sep 17, 3:50 PM)100% (Sep 8, 3:20 AM)30.24 "Hg (Sep 8, 3:20 AM)
Low45 °F (Sep 12, 3:20 AM)44% (Sep 17, 4:20 PM)29.83 "Hg (Sep 18, 3:50 PM)
Average61 °F81%30.02 "Hg
* Reported Sep 6 11:20 PM — Sep 21 11:20 PM, Troisdorf, Weather by CustomWeather, © 2014

Note: Actual official high and low records may vary slightly from our data, if they occured in-between our weather recording intervals... More about our weather records

Advertising

Troisdorf weather history for previous 24 hours

 ConditionsComfort  
Time TempWeatherWind HumidityBarometerVisibility
11:20 PM
Sep 21
52 °FClear.6 mph88%30.09 "Hg10 mi
10:20 PM52 °FClear.5 mph88%30.09 "Hg10 mi
9:50 PM54 °FClear.7 mph82%30.09 "Hg10 mi
9:20 PM55 °FClear.8 mph77%30.09 "Hg10 mi
8:50 PM55 °FClear.10 mph77%30.09 "Hg10 mi
8:20 PM57 °FPartly sunny.7 mph77%30.07 "HgN/A
7:50 PM57 °FScattered clouds.8 mph72%30.07 "HgN/A
7:20 PM57 °FPassing clouds.10 mph72%30.04 "HgN/A
6:50 PM59 °FPassing clouds.8 mph68%30.04 "HgN/A
6:20 PM61 °FPassing clouds.13 mph63%30.04 "HgN/A
5:50 PM63 °FScattered clouds.10 mph68%30.04 "HgN/A
5:20 PM63 °FScattered clouds.8 mph73%30.01 "HgN/A
4:20 PM61 °FPartly sunny.9 mph83%30.01 "HgN/A
3:50 PM61 °FBroken clouds.13 mph83%30.01 "HgN/A
3:20 PM61 °FPartly sunny.13 mph83%30.01 "HgN/A
2:50 PM61 °FPartly sunny.10 mph88%30.01 "HgN/A
2:20 PM61 °FBroken clouds.9 mph88%30.01 "HgN/A
1:50 PM61 °FBroken clouds.10 mph94%30.01 "HgN/A
1:20 PM63 °FBroken clouds.12 mph88%30.01 "HgN/A
12:50 PM61 °FLight rain. Broken clouds.9 mph94%30.01 "Hg6 mi
12:20 PM61 °FLight rain. Broken clouds.8 mph94%30.01 "Hg4 mi
11:20 AM61 °FLight rain. Fog.12 mph94%29.98 "Hg2 mi
10:50 AM61 °FRain showers. Broken clouds.6 mph94%29.98 "Hg2 mi
10:20 AM63 °FLight rain. Fog.9 mph88%29.98 "Hg2 mi
9:50 AM63 °FFog.8 mph94%29.98 "Hg2 mi
9:20 AM61 °FFog.7 mph100%29.98 "Hg1 mi
8:50 AM61 °FFog.5 mph100%29.98 "Hg1 mi
8:20 AM61 °FFog.5 mph94%29.95 "Hg1 mi
7:50 AM61 °FFog.5 mph94%29.95 "Hg1 mi
7:20 AM61 °FFog.3 mph94%29.95 "Hg2 mi
6:50 AM61 °FFog.3 mph94%29.95 "Hg2 mi
6:20 AM61 °FPartly cloudy.5 mph94%29.95 "Hg3 mi
5:50 AM61 °FPartly cloudy.2 mph94%29.95 "Hg3 mi
5:20 AM61 °FLight rain. Partly cloudy.5 mph94%29.95 "HgN/A
4:50 AM61 °FPartly cloudy.5 mph94%29.95 "HgN/A
4:20 AM61 °FPartly cloudy.6 mph94%29.95 "HgN/A
3:50 AM59 °FPartly cloudy.3 mph100%29.95 "HgN/A
3:20 AM61 °FSprinkles. Passing clouds.2 mph94%29.95 "HgN/A
2:50 AM61 °FSprinkles. Passing clouds.5 mph94%29.98 "HgN/A
2:20 AM61 °FSprinkles. Partly cloudy.5 mph94%29.98 "HgN/A
1:50 AM61 °FSprinkles. Partly cloudy.6 mph94%29.98 "HgN/A
1:20 AM61 °FRain showers. Partly cloudy.7 mph94%29.98 "HgN/A
12:50 AM63 °FPartly cloudy.6 mph94%29.98 "HgN/A
12:20 AM61 °FPartly cloudy.3 mph100%29.98 "HgN/A
Weather by CustomWeather, © 2014

See weather overviewHow to use our weather pages